| time (UTC) | temp F | wind direction | speed MPH | gust MPH | rain 1hr in | rain 24hr in | rain mn in | humidity % | barometer mb |
| 20260506231609 | 90 | 91 | 0.0 | 4.0 | 0.00 | 0.00 | 0.00 | 43 | 1014.7 |
| 20260506230105 | 90 | 89 | 1.0 | 5.0 | 0.00 | 0.00 | 0.00 | 44 | 1014.6 |
| 20260506224559 | 91 | 129 | 2.0 | 5.0 | 0.00 | 0.00 | 0.00 | 44 | 1014.7 |
| 20260506223059 | 91 | 0 | 1.0 | 5.0 | 0.00 | 0.00 | 0.00 | 43 | 1014.7 |
| 20260506221601 | 91 | 53 | 1.0 | 7.0 | 0.00 | 0.00 | 0.00 | 43 | 1014.9 |
| 20260506220100 | 92 | 85 | 0.0 | 5.0 | 0.00 | 0.00 | 0.00 | 43 | 1014.9 |
| 20260506214602 | 92 | 0 | 1.0 | 7.0 | 0.00 | 0.00 | 0.00 | 42 | 1014.9 |
| 20260506213058 | 93 | 128 | 0.0 | 3.0 | 0.00 | 0.00 | 0.00 | 43 | 1014.9 |
| 20260506211610 | 92 | 92 | 0.0 | 9.0 | 0.00 | 0.00 | 0.00 | 44 | 1014.9 |
| 20260506210058 | 92 | 70 | 3.0 | 8.0 | 0.00 | 0.00 | 0.00 | 45 | 1014.8 |
| 20260506204558 | 93 | 94 | 2.0 | 6.0 | 0.00 | 0.00 | 0.00 | 43 | 1014.7 |
| 20260506203057 | 94 | 234 | 1.0 | 7.0 | 0.00 | 0.00 | 0.00 | 41 | 1014.8 |
| 20260506201603 | 94 | 131 | 2.0 | 6.0 | 0.00 | 0.00 | 0.00 | 44 | 1015.1 |
| 20260506200058 | 92 | 98 | 2.0 | 6.0 | 0.00 | 0.00 | 0.00 | 43 | 1015.0 |
| 20260506194557 | 93 | 0 | 2.0 | 5.0 | 0.00 | 0.00 | 0.00 | 42 | 1015.0 |
| 20260506193059 | 93 | 0 | 0.0 | 4.0 | 0.00 | 0.00 | 0.00 | 45 | 1015.4 |
| 20260506191600 | 93 | 223 | 0.0 | 4.0 | 0.00 | 0.00 | 0.00 | 46 | 1015.5 |
| 20260506190059 | 92 | 99 | 3.0 | 8.0 | 0.00 | 0.00 | 0.00 | 45 | 1015.8 |
| 20260506184622 | 92 | 83 | 1.0 | 12.0 | 0.00 | 0.00 | 0.00 | 44 | 1015.9 |
| 20260506183100 | 91 | 71 | 3.0 | 8.0 | 0.00 | 0.00 | 0.00 | 46 | 1016.1 |
| 20260506181600 | 92 | 103 | 2.0 | 7.0 | 0.00 | 0.00 | 0.00 | 46 | 1016.1 |
| 20260506180057 | 91 | 0 | 1.0 | 9.0 | 0.00 | 0.00 | 0.00 | 47 | 1016.2 |
| 20260506174600 | 92 | 228 | 1.0 | 5.0 | 0.00 | 0.00 | 0.00 | 46 | 1016.4 |
| 20260506173112 | 90 | 203 | 2.0 | 10.0 | 0.00 | 0.00 | 0.00 | 49 | 1016.6 |
| 20260506171609 | 88 | 95 | 3.0 | 8.0 | 0.00 | 0.00 | 0.00 | 51 | 1016.8 |
| 20260506164623 | 88 | 240 | 4.0 | 8.0 | 0.00 | 0.00 | 0.00 | 51 | 1017.0 |
| 20260506163105 | 87 | 0 | 2.0 | 10.0 | 0.00 | 0.00 | 0.00 | 52 | 1017.2 |
| 20260506161601 | 88 | 87 | 2.0 | 9.0 | 0.00 | 0.00 | 0.00 | 52 | 1017.3 |
| 20260506160110 | 87 | 113 | 3.0 | 12.0 | 0.00 | 0.00 | 0.00 | 55 | 1017.2 |
| 20260506154558 | 86 | 99 | 3.0 | 12.0 | 0.00 | 0.00 | 0.00 | 54 | 1017.5 |
| 20260506153102 | 85 | 98 | 4.0 | 12.0 | 0.00 | 0.00 | 0.00 | 55 | 1017.4 |
| 20260506151558 | 85 | 149 | 3.0 | 10.0 | 0.00 | 0.00 | 0.00 | 59 | 1017.4 |
| 20260506150100 | 84 | 88 | 4.0 | 12.0 | 0.00 | 0.00 | 0.00 | 62 | 1017.3 |
| 20260506144600 | 83 | 233 | 3.0 | 11.0 | 0.00 | 0.00 | 0.00 | 65 | 1017.3 |
| 20260506143101 | 81 | 255 | 3.0 | 10.0 | 0.00 | 0.00 | 0.00 | 69 | 1017.4 |
| 20260506141611 | 81 | 82 | 3.0 | 8.0 | 0.00 | 0.00 | 0.00 | 71 | 1017.4 |
| 20260506140101 | 79 | 94 | 4.0 | 9.0 | 0.00 | 0.00 | 0.00 | 77 | 1017.3 |
| 20260506134601 | 78 | 98 | 4.0 | 10.0 | 0.00 | 0.00 | 0.00 | 79 | 1017.4 |
| 20260506133107 | 77 | 90 | 3.0 | 8.0 | 0.00 | 0.00 | 0.00 | 82 | 1017.3 |
| 20260506131557 | 77 | 216 | 3.0 | 8.0 | 0.00 | 0.00 | 0.00 | 83 | 1017.2 |
| 20260506130100 | 75 | 221 | 2.0 | 7.0 | 0.00 | 0.00 | 0.00 | 86 | 1017.0 |
| 20260506124557 | 73 | 0 | 2.0 | 5.0 | 0.00 | 0.00 | 0.00 | 87 | 1016.9 |
| 20260506123059 | 71 | 120 | 0.0 | 3.0 | 0.00 | 0.00 | 0.00 | 90 | 1016.8 |
| 20260506121610 | 68 | 0 | 0.0 | 0.0 | 0.00 | 0.00 | 0.00 | 93 | 1016.6 |
| 20260506120125 | 66 | 0 | 0.0 | 1.0 | 0.00 | 0.00 | 0.00 | 93 | 1016.8 |
| 20260506114559 | 65 | 0 | 0.0 | 2.0 | 0.00 | 0.00 | 0.00 | 94 | 1016.6 |
| 20260506113109 | 65 | 0 | 0.0 | 1.0 | 0.00 | 0.00 | 0.00 | 94 | 1016.4 |
| 20260506111559 | 63 | 0 | 0.0 | 0.0 | 0.00 | 0.00 | 0.00 | 94 | 1016.5 |
| 20260506104602 | 63 | 0 | 0.0 | 1.0 | 0.00 | 0.00 | 0.00 | 94 | 1015.8 |
| 20260506103102 | 63 | 0 | 0.0 | 0.0 | 0.00 | 0.00 | 0.00 | 93 | 1015.9 |
| 20260506101603 | 63 | 0 | 0.0 | 0.0 | 0.00 | 0.00 | 0.00 | 93 | 1015.8 |
| 20260506100105 | 63 | 0 | 0.0 | 0.0 | 0.00 | 0.00 | 0.00 | 93 | 1015.9 |
| 20260506094600 | 63 | 0 | 0.0 | 0.0 | 0.00 | 0.00 | 0.00 | 92 | 1015.9 |
| 20260506093057 | 64 | 0 | 0.0 | 0.0 | 0.00 | 0.00 | 0.00 | 92 | 1015.7 |
| 20260506091600 | 64 | 0 | 0.0 | 0.0 | 0.00 | 0.00 | 0.00 | 92 | 1015.7 |
| 20260506090059 | 65 | 0 | 0.0 | 0.0 | 0.00 | 0.00 | 0.00 | 91 | 1015.6 |
| 20260506084558 | 65 | 0 | 0.0 | 2.0 | 0.00 | 0.00 | 0.00 | 91 | 1015.3 |
| 20260506083059 | 64 | 0 | 0.0 | 0.0 | 0.00 | 0.00 | 0.00 | 91 | 1015.7 |
| 20260506081602 | 64 | 0 | 0.0 | 0.0 | 0.00 | 0.00 | 0.00 | 91 | 1015.7 |
| 20260506073104 | 65 | 0 | 0.0 | 0.0 | 0.00 | 0.00 | 0.00 | 90 | 1015.8 |
| 20260506071559 | 65 | 0 | 0.0 | 0.0 | 0.00 | 0.00 | 0.00 | 91 | 1015.9 |
| 20260506070116 | 65 | 0 | 0.0 | 0.0 | 0.00 | 0.00 | 0.00 | 90 | 1015.9 |
| 20260506061603 | 65 | 0 | 0.0 | 0.0 | 0.00 | 0.00 | 0.00 | 86 | 1016.3 |
| 20260506050113 | 68 | 0 | 0.0 | 0.0 | 0.00 | 0.00 | 0.00 | 83 | 1016.7 |
| 20260506044603 | 68 | 0 | 0.0 | 0.0 | 0.00 | 0.00 | 0.00 | 84 | 1017.0 |
| 20260506043100 | 68 | 0 | 0.0 | 0.0 | 0.00 | 0.00 | 0.00 | 82 | 1016.9 |
| 20260506041600 | 68 | 0 | 0.0 | 0.0 | 0.00 | 0.00 | 0.00 | 82 | 1016.8 |
| 20260506040101 | 69 | 0 | 0.0 | 0.0 | 0.00 | 0.00 | 0.00 | 81 | 1016.6 |
| 20260506034600 | 69 | 0 | 0.0 | 0.0 | 0.00 | 0.00 | 0.00 | 80 | 1016.7 |
| 20260506033059 | 70 | 0 | 0.0 | 0.0 | 0.00 | 0.00 | 0.00 | 79 | 1016.6 |
| 20260506031603 | 70 | 0 | 0.0 | 0.0 | 0.00 | 0.00 | 0.00 | 78 | 1016.6 |
| 20260506030114 | 70 | 0 | 0.0 | 0.0 | 0.00 | 0.00 | 0.00 | 77 | 1016.7 |
| 20260506024559 | 70 | 0 | 0.0 | 3.0 | 0.00 | 0.00 | 0.00 | 75 | 1016.6 |
| 20260506023100 | 71 | 0 | 0.0 | 0.0 | 0.00 | 0.00 | 0.00 | 75 | 1016.4 |
| 20260506021614 | 71 | 0 | 0.0 | 2.0 | 0.00 | 0.00 | 0.00 | 74 | 1016.4 |
| 20260506020100 | 72 | 0 | 0.0 | 3.0 | 0.00 | 0.00 | 0.00 | 73 | 1016.3 |
| 20260506014604 | 72 | 105 | 0.0 | 4.0 | 0.00 | 0.00 | 0.00 | 72 | 1015.9 |
| 20260506013101 | 73 | 101 | 2.0 | 8.0 | 0.00 | 0.00 | 0.00 | 71 | 1015.9 |
| 20260506011600 | 73 | 102 | 2.0 | 5.0 | 0.00 | 0.00 | 0.00 | 69 | 1015.9 |
| 20260506004629 | 74 | 118 | 4.0 | 7.0 | 0.00 | 0.00 | 0.00 | 67 | 1015.4 |
| 20260506003101 | 75 | 104 | 4.0 | 9.0 | 0.00 | 0.00 | 0.00 | 66 | 1015.3 |
| 20260506001601 | 76 | 98 | 4.0 | 10.0 | 0.00 | 0.00 | 0.00 | 65 | 1015.1 |
| 20260506000100 | 77 | 89 | 4.0 | 11.0 | 0.00 | 0.00 | 0.00 | 64 | 1014.9 |
| 20260505234618 | 77 | 126 | 5.0 | 13.0 | 0.00 | 0.00 | 0.00 | 63 | 1014.8 |
| 20260505233058 | 78 | 75 | 6.0 | 11.0 | 0.00 | 0.00 | 0.00 | 63 | 1014.5 |